Location: Simi Valley
(34.2690°N, 118.7810°W)
Time: 14:25:50
(UTC-07:00)

SAR-Lupe-1 - Visible Passes

Search period start: 27 August 2015 00:00
Search period end: 06 September 2015 00:00
Orbit: 481 x 485 km, 98.1° (Epoch: 28 July)

Date Brightness Start Highest point End Pass type
(mag) Time Alt. Az. Time Alt. Az. Time Alt. Az.
27 Aug 7.0 04:16:40 10° ENE 04:18:19 13° E 04:20:08 10° SE visible
27 Aug 5.1 05:48:40 10° NNW 05:51:47 28° WNW 05:54:51 10° SW visible
28 Aug 4.0 05:23:35 10° N 05:27:09 65° WNW 05:30:40 10° SSW visible
29 Aug 4.8 04:58:56 10° NNE 05:02:26 51° E 05:05:54 10° S visible
30 Aug 6.4 04:34:47 10° NE 04:37:37 22° E 04:40:31 10° SSE visible
31 Aug 7.3 04:12:14 10° E 04:12:40 10° E 04:13:21 10° ESE visible
31 Aug 4.7 05:42:57 10° N 05:46:15 35° WNW 05:49:30 10° SW visible
01 Sep 3.9 05:18:00 10° N 05:21:35 84° WNW 05:25:09 10° SSW visible
02 Sep 5.4 04:53:28 10° NNE 04:56:51 39° E 05:00:14 10° S visible
03 Sep 6.8 04:29:32 10° NE 04:32:00 18° E 04:34:34 10° SE visible
04 Sep 4.4 05:37:16 10° N 05:40:42 44° WNW 05:44:06 10° SSW visible
05 Sep 4.2 05:12:27 10° NNE 05:16:02 76° ESE 05:19:35 10° S visible
